This demonstration page uses our WeatherBlox Daily Observations layout. Learn more.

Left ArrowRight Arrow

39.08367, -84.50855

Hourly Observations for May 12, 2019

Temp ( °F °C ) Dew Point ( °F °C ) Humidity (%) Winds ( mph kmh ) Pressure ( in mb ) Visibility ( mi km ) Precip ( " mm )
12:53 am 00:53 Cloudy with Light Rain 51 10.6 49 9.4 92 92 NNE 12 19 29.78 1009 9 14.48406 0.01 0.254
1:53 am 01:53 Cloudy 50 10 47 8.3 89 89 NE 9 15 29.77 1008 10 16.0934 0.01 0.254
2:29 am 02:29 Cloudy with Mist and Fog 49 9.4 46 7.8 90 90 NE 10 17 29.77 1008 6 9.65604 0 0.0254
2:53 am 02:53 Cloudy 49 9.4 47 8.3 93 93 VRB 6 9 29.75 1008 9 14.48406 0 0.0254
3:53 am 03:53 Cloudy 48 8.9 45 7.2 89 89 NNE 9 15 29.74 1007 10 16.0934 0 0
4:53 am 04:53 Cloudy 48 8.9 46 7.8 93 93 VRB 6 9 29.73 1007 10 16.0934 0 0
5:53 am 05:53 Cloudy with Mist and Fog 48 8.9 46 7.8 93 93 VRB 5 7 29.73 1007 6 9.65604 0 0
6:28 am 06:28 Cloudy with Mist and Fog 49 9.4 46 7.8 90 90 SE 6 9 29.76 1008 5 8.0467 0 0
6:40 am 06:40 Cloudy with Light Rain 49 9.4 46 7.8 90 90 VRB 5 7 29.76 1008 2.5 4.02335 0 0.0254
6:53 am 06:53 Cloudy with Mist and Fog 49 9.4 47 8.3 93 93 VRB 5 7 29.75 1007 3 4.82802 0 0.0254
7:13 am 07:13 Cloudy with Mist and Fog 49 9.4 47 8.3 93 93 VRB 6 9 29.77 1008 2 3.21868 0.01 0.254
7:24 am 07:24 Cloudy with Mist and Fog 49 9.4 47 8.3 93 93 Calm 29.77 1008 1.75 2.816345 0.01 0.254
7:53 am 07:53 Cloudy with Mist and Fog 50 10 48 8.9 93 93 VRB 3 6 29.76 1008 1.75 2.816345 0.01 0.254
8:53 am 08:53 Cloudy with Mist and Fog 51 10.6 49 9.4 92 92 Calm 29.76 1008 2 3.21868 0 0
9:53 am 09:53 Cloudy with Mist and Fog 52 11.1 50 10 93 93 VRB 3 6 29.76 1008 2 3.21868 0 0
10:53 am 10:53 Cloudy with Mist and Fog 52 11.1 50 10 93 93 VRB 6 9 29.75 1008 2 3.21868 0 0
11:53 am 11:53 Cloudy 53 11.7 50 10 89 89 W 6 9 29.78 1009 10 16.0934 0 0
12:53 pm 12:53 Cloudy with Mist and Fog 53 11.7 50 10 89 89 N 5 7 29.76 1008 4 6.43736 0 0
1:44 pm 13:44 Cloudy with Light Rain 53 11.7 50 10 89 89 W 7 11 29.78 1009 8 12.87472 0.03 0.762
1:53 pm 13:53 Cloudy 54 12.2 50 10 87 87 W 6 9 29.77 1008 10 16.0934 0.03 0.762
2:53 pm 14:53 Cloudy 54 12.2 50 10 87 87 WSW 6 9 29.77 1008 9 14.48406 0.01 0.254
3:53 pm 15:53 Cloudy 54 12.2 50 10 87 87 W 7 11 29.77 1008 9 14.48406 0 0
4:53 pm 16:53 Cloudy 54 12.2 50 10 87 87 W 8 13 29.76 1008 8 12.87472 0 0
5:37 pm 17:37 Cloudy with Light Rain 54 12.2 51 10.6 90 90 W 6 9 29.76 1008 6 9.65604 0.02 0.508
5:53 pm 17:53 Cloudy with Light Rain 54 12.2 51 10.6 90 90 W 6 9 29.76 1008 5 8.0467 0.03 0.762
6:53 pm 18:53 Cloudy 53 11.7 51 10.6 93 93 W 7 11 29.76 1008 9 14.48406 0.01 0.254
7:53 pm 19:53 Cloudy 53 11.7 50 10 89 89 W 7 11 29.75 1008 10 16.0934 0 0
8:53 pm 20:53 Cloudy 53 11.7 50 10 89 89 W 5 7 29.77 1008 10 16.0934 0 0
9:53 pm 21:53 Cloudy 52 11.1 49 9.4 89 89 W 9 15 29.78 1008 10 16.0934 0 0.0254
10:53 pm 22:53 Cloudy 52 11.1 49 9.4 89 89 WSW 9 15 29.8 1009 9 14.48406 0 0
11:06 pm 23:06 Cloudy 52 11.1 49 9.4 89 89 WSW 9 15 29.81 1009 10 16.0934 0 0
11:32 pm 23:32 Cloudy 52 11.1 49 9.4 89 89 W 9 15 29.81 1009 10 16.0934 0 0
11:53 pm 23:53 Cloudy 52 11.1 48 8.9 86 86 WSW 12 19 29.79 1009 10 16.0934 0 0

Powered by AerisWeather